CAPE
452 437 438 326 403 400 528 663 864 814 690 294 37 9 0 0 0 0 0 0 0 0
464 532 514 355 283 384 498 675 714 819 774 480 64 6 0 0 0 0 0 0 0 0
592 663 616 350 289 385 438 759 620 809 808 559 69 7 0 0 0 0 0 0 0 0
743 753 671 416 434 414 477 551 523 742 775 544 161 5 2 0 0 0 0 0 0 0
824 801 755 602 583 557 465 399 464 555 673 536 266 80 37 21 14 0 0 0 0 0
923 848 842 774 777 664 581 354 356 490 557 431 268 85 99 87 61 11 0 0 0 0
1009 977 1019 1020 981 835 796 422 409 415 577 462 294 196 121 130 110 70 41 11 0 0
900 932 984 1068 1158 1190 1115 829 485 490 533 541 410 278 215 140 120 128 100 103 61 4
1067 1067 1080 1059 1032 1123 1280 1259 742 600 588 604 581 352 132 182 179 138 140 136 94 71
1236 1308 1353 1365 1271 1141 1171 1313 1141 916 784 725 753 263 118 133 330 230 188 204 144 92
1503 1490 1536 1580 1529 1424 1303 1282 1378 1187 1066 957 915 232 87 113 466 421 323 206 176 300
1730 1716 1732 1822 1853 1759 1588 1442 1466 1381 1181 1110 1125 259 77 19 390 332 294 200 213 177
1797 1714 1682 1810 1990 2053 1985 1835 1685 1730 1499 1150 1313 170 6 26 471 336 349 348 215 74
1977 1949 1817 1792 1859 1951 2153 2155 1954 1861 1696 1426 1245 850 0 0 584 535 442 320 280 142
CIN
-333 -292 -277 -312 -267 -258 -242 -203 -184 -178 -218 -316 -429 -341 0 0 0 0 0 0 0 0
-353 -298 -296 -344 -363 -302 -292 -239 -227 -205 -216 -299 -423 -287 0 0 0 0 0 0 0 0
-383 -335 -308 -359 -382 -367 -348 -240 -278 -225 -225 -290 -459 -349 0 0 0 0 0 0 0 0
-393 -356 -322 -385 -373 -388 -358 -328 -325 -273 -264 -312 -418 -368 -232 -52 0 0 0 0 0 0
-448 -407 -374 -396 -378 -369 -387 -400 -375 -356 -321 -349 -418 -511 -554 -557 -435 0 0 0 0 0
-488 -452 -427 -418 -358 -376 -385 -444 -421 -390 -384 -432 -482 -571 -520 -515 -511 -541 0 0 0 -41
-555 -512 -461 -416 -369 -397 -387 -462 -455 -458 -430 -469 -520 -546 -587 -542 -528 -520 -517 -547 0 0
-656 -567 -522 -452 -396 -379 -369 -433 -516 -473 -467 -481 -515 -556 -592 -621 -589 -542 -527 -511 -501 -391
-637 -591 -559 -523 -465 -426 -388 -345 -452 -488 -481 -491 -513 -573 -735 -641 -591 -596 -562 -554 -547 -488
-663 -606 -571 -519 -472 -482 -461 -381 -418 -450 -452 -493 -504 -682 -828 -764 -543 -585 -600 -571 -557 -549
-659 -633 -558 -495 -496 -490 -480 -476 -420 -446 -466 -466 -485 -771 -935 -838 -519 -547 -567 -593 -549 -430
-691 -617 -558 -514 -509 -479 -441 -452 -472 -449 -460 -487 -485 -854 -1007 -933 -569 -612 -620 -607 -523 -527
-711 -660 -615 -595 -495 -432 -397 -408 -392 -367 -438 -531 -466 -974 -506 -946 -570 -627 -596 -544 -571 -654
-647 -623 -629 -571 -504 -441 -335 -317 -338 -357 -367 -438 -487 -623 0 0 -486 -482 -497 -548 -553 -568
Wind_Speed
16 11 11 10 8 8 7 7 8 9 9 9 8 6 6 5 5 4 4 6 4 3
15 15 13 12 11 8 8 7 8 10 11 10 9 8 8 6 6 6 5 5 5 3
18 17 14 11 12 12 9 9 9 10 10 10 9 9 9 6 5 7 4 4 6 4
16 16 14 12 13 12 10 11 10 11 11 11 10 9 9 7 7 8 6 5 7 7
17 16 16 15 14 12 12 11 12 11 11 11 12 11 12 11 9 10 9 9 8 8
19 18 18 16 15 13 13 12 11 12 13 13 13 12 12 12 11 12 12 11 10 10
20 20 19 17 16 15 15 14 14 14 14 14 14 13 13 12 11 11 11 11 11 10
19 18 17 17 16 15 16 16 16 15 14 14 14 12 14 13 13 13 12 11 10 10
17 18 18 16 16 15 16 14 14 15 15 15 12 16 18 17 13 13 13 12 11 9
18 19 18 16 16 17 17 15 15 15 14 16 15 16 20 21 12 12 13 13 10 9
19 20 17 17 18 18 17 18 15 16 16 14 12 16 20 23 14 12 12 12 12 11
20 19 19 20 21 17 16 16 17 14 16 17 14 20 22 18 14 11 12 12 12 11
20 20 20 21 19 17 14 15 12 14 15 18 17 19 21 22 11 12 10 11 11 16
17 19 20 15 14 15 14 12 13 14 12 16 17 15 22 24 12 11 10 10 9 8
Wind_Direction
201 201 206 196 193 201 194 197 184 191 189 193 188 180 173 182 179 169 172 179 184 179
200 204 202 197 194 198 192 189 183 187 193 195 186 180 174 189 184 176 181 187 185 184
198 200 200 194 199 198 189 187 179 185 193 193 187 184 177 186 179 178 188 186 183 189
200 200 198 195 200 200 187 186 186 184 191 192 189 183 185 189 187 189 184 190 193 196
196 194 196 197 197 193 191 188 190 185 191 192 193 186 190 195 194 195 195 199 194 200
196 195 200 198 194 191 189 189 190 188 192 193 192 187 196 195 191 197 203 199 201 200
197 196 199 197 194 189 192 185 192 197 196 195 192 193 194 193 194 199 204 204 209 198
197 200 198 196 196 190 191 194 194 194 201 196 195 195 190 193 195 198 205 210 211 205
196 197 198 196 195 193 196 196 191 199 201 199 205 197 185 188 196 199 205 210 210 188
195 199 198 192 191 195 195 191 198 201 202 208 209 186 185 190 194 194 202 207 199 195
192 199 195 192 198 198 194 193 194 199 200 202 209 183 188 194 197 196 197 196 195 200
194 197 194 197 201 199 195 199 200 193 195 200 203 185 193 184 197 194 192 188 191 197
195 195 199 200 199 198 198 202 195 199 197 197 204 192 186 185 189 190 189 188 192 190
196 199 203 200 198 195 199 192 194 195 195 204 206 196 187 186 186 190 190 192 190 205